{"data":{"norad_id":69960,"intl_designator":"2026-157T","name":"STARLINK-37901","alt_names":[],"object_type":"PAYLOAD","status":"ACTIVE","operator":null,"country":"US","launch_date":"2026-07-09","launch_site_code":"AFETR","launch_vehicle":null,"mission":null,"orbit_class":"UNKNOWN","rcs_meters":null,"size_class":null,"mass_kg":null,"dimensions":null,"purposes":["comms"],"wikipedia_slug":null,"has_3d_model":false,"image_url":null,"decayed_at":null,"tle_current":{"epoch":"2026-09-19T11:33:38.740032Z","epoch_age_seconds":105800,"freshness":"FRESH","line1":"1 69960U 26157T   26262.48169838  .00023642  00000+0  70939-3 0  9993","line2":"2 69960  53.1599 338.6810 0000836  90.7296 269.3803 15.34366951 11212","mean_motion":15.34366951,"eccentricity":8.36e-5,"inclination_deg":53.1599,"raan_deg":338.681,"arg_perigee_deg":90.7296,"mean_anomaly_deg":269.3803,"bstar":0.00070939,"rev_number":1121,"period_min":93.849779484725,"perigee_km":462.22956810686,"apogee_km":463.37337301914,"semimajor_km":6840.938470563,"source":"CELESTRAK","updated_at":"2026-09-20T09:00:44.302385Z"}}}